Weather History for Merced, CA

Change the Weather History Date:

Friday, November 29, 2013

  Actual Average Record
Temperature  
Mean Temperature 52 °F 48 °F  
Max Temperature 68 °F 58 °F 68 °F (2013)
Min Temperature 36 °F 37 °F 26 °F (1948)
Degree Days  
Heating Degree Days 13    
Month to date heating degree days 315  
Since 1 July heating degree days 426  
Cooling Degree Days 0    
Month to date cooling degree days 0  
Year to date cooling degree days 1787  
Moisture  
Dew Point 41 °F    
Average Humidity 67    
Maximum Humidity 92    
Minimum Humidity 42    
Precipitation  
Precipitation 0.00 in 0.03 in 0.16 in (2014)
Month to date precipitation 0.62 1.14  
Year to date precipitation 3.50 10.94  
Since 1 July precipitation 0.72 2.26  
Snow  
Snow 0.00 in - - ()
Month to date snowfall 0.0  
Since 1 July snowfall 0.0  
Since 1 September snowfall 0.0  
Snow Depth 0.00 in    
Sea Level Pressure  
Sea Level Pressure 30.14 in    
Wind  
Wind Speed 2 mph (WNW)    
Max Wind Speed 12 mph    
Max Gust Speed -    
Visibility 5 miles    
Events      
T = Trace of Precipitation, MM = Missing Value Source: NWS Daily Summary

Daily Weather History Graph

Daily Weather History Graph

Search for Another Location

Airport:

Trip Planner

Search our weather history database for the weather conditions in past years. The results will help you decide how hot, cold, wet, or windy it might be!

Date:

Astronomy

Nov. 29, 2013 Rise Set
Actual Time 6:55 AM PST 4:45 PM PST
Civil Twilight 6:27 AM PST 5:13 PM PST
Nautical Twilight 5:55 AM PST 5:45 PM PST
Astronomical Twilight 5:23 AM PST 6:17 PM PST
Moon 3:11 AM PST (11/29) 2:29 PM PST (11/29)
Length of Visible Light 10h 46m
Length of Day
9h 49m
Waning Crescent, 13% of the Moon is Illuminated
Nov 29
Waning Crescent
Dec 2
New
Dec 9
First Quarter
Dec 17
Full
Dec 25
Last Quarter

Hourly Weather History & Observations

Time (PST) Temp. Windchill Dew Point Humidity Pressure Visibility Wind Dir Wind Speed Gust Speed Precip Events Conditions
12:53 AM 45.0 °F - 42.1 °F 90% 30.08 in 4.0 mi Calm Calm - N/A   Clear
1:53 AM 42.1 °F - 39.9 °F 92% 30.09 in 4.0 mi Calm Calm - N/A   Clear
2:53 AM 44.1 °F - 39.0 °F 82% 30.09 in 5.0 mi Calm Calm - N/A   Haze
3:53 AM 42.1 °F - 39.9 °F 92% 30.10 in 4.0 mi Calm Calm - N/A   Clear
4:53 AM 37.9 °F - 36.0 °F 93% 30.11 in 4.0 mi Calm Calm - N/A   Clear
5:53 AM 39.9 °F - 37.9 °F 93% 30.11 in 4.0 mi Calm Calm - N/A   Clear
6:53 AM 41.0 °F - 37.9 °F 89% 30.12 in 4.0 mi Calm Calm - N/A   Clear
7:15 AM 35.6 °F 32.8 °F 35.6 °F 100% 30.13 in 2.0 mi SSE 3.5 mph - N/A   Clear
7:53 AM 39.0 °F - 37.0 °F 93% 30.14 in 2.5 mi Calm Calm - N/A   Clear
8:07 AM 41.0 °F - 39.2 °F 93% 30.14 in 3.0 mi Calm Calm - N/A   Clear
8:53 AM 46.9 °F - 43.0 °F 86% 30.16 in 3.0 mi Calm Calm - N/A   Clear
9:53 AM 53.1 °F - 44.1 °F 71% 30.19 in 6.0 mi South 3.5 mph - N/A   Haze
10:53 AM 57.9 °F - 43.0 °F 58% 30.19 in 6.0 mi Calm Calm - N/A   Haze
11:53 AM 62.1 °F - 41.0 °F 46% 30.16 in 10.0 mi North 6.9 mph - N/A   Clear
12:53 PM 64.9 °F - 42.1 °F 43% 30.14 in 8.0 mi North 8.1 mph - N/A   Clear
1:53 PM 66.9 °F - 42.1 °F 40% 30.11 in 8.0 mi NNW 5.8 mph - N/A   Clear
2:53 PM 66.9 °F - 42.1 °F 40% 30.10 in 9.0 mi Calm Calm - N/A   Clear
3:53 PM 66.0 °F - 43.0 °F 43% 30.11 in 8.0 mi West 6.9 mph - N/A   Clear
4:53 PM 62.1 °F - 44.1 °F 52% 30.12 in 7.0 mi West 3.5 mph - N/A   Clear
5:53 PM 55.9 °F - 45.0 °F 67% 30.15 in 8.0 mi WNW 5.8 mph - N/A   Clear
6:53 PM 55.0 °F - 46.0 °F 72% 30.17 in 7.0 mi NNW 3.5 mph - N/A   Clear
7:53 PM 53.1 °F - 45.0 °F 74% 30.19 in 6.0 mi Calm Calm - N/A   Haze
8:53 PM 46.9 °F - 41.0 °F 80% 30.20 in 5.0 mi Calm Calm - N/A   Haze
9:53 PM 45.0 °F 43.5 °F 41.0 °F 86% 30.21 in 5.0 mi SE 3.5 mph - N/A   Clear
10:53 PM 45.0 °F - 41.0 °F 86% 30.21 in 4.0 mi Calm Calm - N/A   Clear
11:53 PM 41.0 °F 38.0 °F 37.9 °F 89% 30.22 in 4.0 mi ESE 4.6 mph - N/A   Clear